Hourly Data Report for November 04, 2019

All times are specified in Local Standard Time (LST). Add 1 hour to adjust for Daylight Saving Time where and when it is observed.

HOPE A
BRITISH COLUMBIA
Current Station Operator: NAVCAN

49°22'06.000" N
121°29'53.000" W
39.00 m
1113542
71187
YHE

Download Data

Hourly Data (November 2019)
Hourly Data Report for November 4, 2019
TIME Temp Definition
°C
Dew Point Definition
°C
Rel Hum Definition
%
Wind Dir Definition
10's deg

Wind Spd Definition
km/h
Visibility Definition
km
Stn Press Definition
kPa
Hmdx Definition


Wind Chill Definition


Weather Definition


00:00 2.8 2.4 97 10 8 16.1 101.95     LegendNANA
01:00 2.6 2.2 97 9 8 16.1 101.96     LegendNANA
02:00 2.3 1.8 96 11 9 16.1 101.91     LegendNANA
03:00 2.3 1.9 97 11 13 16.1 101.94     LegendNANA
04:00 1.8 1.4 97 8 9 16.1 101.94     LegendNANA
05:00 1.6 1.3 98 9 8 16.1 101.93     LegendNANA
06:00 1.5 1.2 98 10 8 16.1 101.95     LegendNANA
07:00 1.2 0.9 98   0 16.1 101.98     LegendNANA
08:00 1.5 1.2 98 11 9 16.1 102.00     LegendNANA
09:00 3.3 2.7 96 11 15 16.1 101.98     LegendNANA
10:00 5.1 3.4 89 11 9 16.1 101.94     LegendNANA
11:00 7.3 4.2 81 21 5 16.1 101.89     LegendNANA
12:00 8.0 4.5 79 24 8 16.1 101.82     LegendNANA
13:00 8.2 4.5 77 23 11 16.1 101.77     LegendNANA
14:00 9.6 4.7 71 24 11 16.1 101.73     LegendNANA
15:00 9.7 4.4 69 LegendMM 9 16.1 101.69     LegendNANA
16:00 9.9 4.5 69 24 17 16.1 101.70     LegendNANA
17:00 8.4 4.6 77 22 11 16.1 101.76     LegendNANA
18:00 6.4 3.8 83 22 9 16.1 101.80     LegendNANA
19:00 4.7 3.4 91   0 16.1 101.84     LegendNANA
20:00 3.8 3.2 96 9 5 16.1 101.86     LegendNANA
21:00 3.9 3.3 96   0 16.1 101.89     LegendNANA
22:00 3.8 3.4 97 10 8 16.1 101.92     LegendNANA
23:00 4.0 3.4 96 11 5 16.1 101.92     LegendNANA

Notes on Data Quality.

Legend

  • E = Estimated
  • M = Missing
  • NA = Not Available
Date modified: